www.pogodaiklimat.ru
ПОГОДА на Базе ВВС Дувр
Время
и дата
08:55 03.02
09:54 03.02
09:55 03.02
10:55 03.02
12:16 03.02
12:55 03.02
13:55 03.02
14:11 03.02
14:56 03.02
15:54 03.02
16:56 03.02
17:54 03.02
18:05 03.02
19:55 03.02
20:55 03.02
21:55 03.02
22:55 03.02
23:55 03.02
00:55 04.02
01:55 04.02
02:55 04.02
03:55 04.02
04:55 04.02
05:55 04.02
06:55 04.02
07:55 04.02
08:55 04.02
09:55 04.02
10:55 04.02
11:55 04.02
12:55 04.02
13:55 04.02
14:55 04.02
15:55 04.02
16:55 04.02
17:55 04.02
18:55 04.02
19:55 04.02
20:55 04.02
21:55 04.02
22:55 04.02
23:55 04.02
01:55 05.02
02:55 05.02
03:55 05.02
04:55 05.02
05:55 05.02
06:55 05.02
Ветер
(напр.,м/с)
Видим. Явления Облачность Т
(С)
Тd
(С)
f
(%)
Тe
(С)
Тes
(С)
Комфортность P
(гПа)
Po
(гПа)
Тmin
(С)
Tmax
(С)
R
(мм)
R24
(мм)
S
(см)
СЗ 9
{13}
16 км 5/5 1050 м +0.7 -7.6 54 -6 -6 1016.3 1014.7
СЗ 8
{12}
16 км ясно +1.0 -13.0 34 -5 -5 1017.0 1015.4
СЗ 9
{12}
16 км 2/2 1650 м +0.5 -12.9 36 -6 -6 1017.0 1015.4
СЗ 8
{12}
16 км ясно -0.2 -15.3 31 -7 -6 1018.7 1017.1
СЗ 9
{12}
14 км 8/8 1950 м 0.0 -17.0 27 -7 -7 1019.0 1017.4
З 12
{15}
16 км ясно -0.4 -18.1 25 -8 -8 1018.7 1017.1 -1.2 +3.0
СЗ 10
{13}
16 км 2/0 2100 m
[Ac]
-0.8 -17.9 26 -8 -8 1019.3 1017.8
З 10
{14}
16 км 2/0 2100 m
[Ac]
0.0 -18.0 24 -7 -7 1018.1
З 10
{17}
16 км ясно -1.9 -19.4 25 -10 -9 1020.7 1019.1
СЗ 9
{14}
16 км 2/0 2100 m
[Ac]
-2.2 -19.6 25 -10 -9 1021.7 1020.1
СЗ 9
{11}
16 км ясно -3.1 -19.1 28 -11 -11 1023.4 1021.8
З 9
{15}
16 км ясно -4.1 -20.4 27 -12 -12 1024.8 1023.2
СЗ 11
{14}
16 км ясно -4.0 -20.0 28 -13 -13 1025.1 1023.5
СЗ 9
{15}
16 км ясно -5.5 -19.6 32 -14 -14 1027.8 1026.2
З 10
{14}
16 км ясно -6.1 -20.9 30 -15 -15 1029.2 1027.6
СЗ 9
{14}
16 км ясно -6.9 -22.0 29 -16 -16 1030.2 1028.6
СЗ 9
{13}
16 км ясно -7.5 -21.4 32 -17 -17 1031.2 1029.6
СЗ 9
{13}
16 км ясно -7.8 -21.7 32 -17 -17 1032.2 1030.6
СЗ 9 16 км ясно -8.5 -20.9 36 -18 -18 1033.6 1032.0 -8.5 -4.9
СЗ 8
{11}
16 км ясно -8.9 -21.3 36 -18 -18 1033.6 1032.0
З 7 16 км ясно -9.2 -20.9 38 -18 -18 1034.6 1033.0
З 4 16 км ясно -9.3 -20.7 39 -16 -16 1035.3 1033.7
З 4 16 км ясно -9.4 -20.0 42 -16 -16 1036.6 1035.0
З 2 16 км ясно -9.8 -19.3 46 -14 -14 1037.7 1036.0
З 3 16 км ясно -9.8 -19.0 47 -15 -15 1038.7 1037.0 -9.8 -8.4
З 2 16 км ясно -9.0 -18.8 45 -13 -13 1039.0 1037.4
З 4 16 км ясно -7.7 -19.6 38 -14 -13 1039.0 1037.4
СЗ 5 16 км ясно -6.6 -19.6 35 -13 -12 1039.7 1038.1
З 2 16 км ясно -5.7 -19.4 33 -9 -4 1039.0 1037.4
З 2 16 км ясно -4.7 -18.9 32 -8 -2 1037.6 1036.0
Ю 3 16 км ясно -3.4 -19.3 28 -8 -2 1036.6 1035.0 -9.8 -3.4
ЮЗ 3 16 км ясно -2.2 -19.2 26 -6 -1 1035.3 1033.7
Ю 6 16 км ясно -1.8 -18.4 27 -8 -6 1034.6 1033.0
ЮЗ 6 16 км ясно -1.6 -19.1 25 -7 -6 1033.9 1032.3
Ю 5 16 км ясно -2.2 -17.9 29 -8 -7 1033.6 1032.0
Ю 5 16 км ясно -3.2 -18.3 30 -9 -9 1033.6 1032.0
Ю 5 16 км ясно -3.7 -18.0 32 -10 -10 1033.6 1032.0 -3.7 -1.5
Ю 4 16 км ясно -4.6 -17.4 36 -10 -10 1032.9 1031.3
ЮВ 4 16 км ясно -5.0 -17.5 37 -11 -11 1032.2 1030.6
Ю 5 16 км ясно -4.3 -12.0 55 -11 -11 1031.9 1030.3
Ю 6 16 км ясно -3.7 -10.1 61 -11 -11 1031.2 1029.6
Ю 5 16 км ясно -3.3 -8.8 66 -10 -10 1030.5 1028.9
Ю 5 16 км ясно -2.7 -7.6 69 -9 -9 1028.5 1026.9
Ю 4 16 км ясно -1.7 -8.0 62 -7 -7 1027.8 1026.2
Ю 5 16 км ясно -1.3 -7.7 62 -7 -7 1027.1 1025.5
Ю 4 16 км ясно -1.7 -7.2 66 -7 -7 1027.1 1025.5
Ю 4 16 км ясно -1.5 -7.2 65 -7 -7 1026.8 1025.2
Ю 4 16 км ясно -0.9 -8.1 58 -6 -6 1026.5 1024.9 -3.2 -0.9
Местоположение метеостанции Dover Air Force Base: широта 39.1333 долгота -75.4667 высота над уровнем моря 9 м.
В архиве по умолчанию представлена погода на Базе ВВС Дувр за последние 1-2 суток. Обновление информации о фактической погоде в базе происходит ежечасно! Архивные данные за месяц целиком и за предыдущие месяцы Вы можете получить, выбрав интересующий диапазон дат из раскрывающегося списка и нажав кнопку "Ввод!".
Внимание! Архив погоды МЕТАР в базе сайта по станциям, не включенным в климатический монитор, хранится не более 60 дней. Нет смысла пытаться выбрать более раннюю дату.
*Определитесь, кто Вы:
Внимание! Время в таблицах - местное (без учета летнего времени). Для получения всемирного времени необходимо вычесть поправку, которая равна -5 ч.
Смотрите также архив погоды в соседних городах и на ближайших метеорологических станциях:
Партнеры нашего сайта:      
Пояснения к столбцам:
  • Ветер - указаны скорость ветра в м/с - средняя за 10 мин, порывы в срок и между сроками (в фигурных скобках) и направление, откуда дует ветер: С - северный,
  • СВ - северо-восточный, В - восточный, ЮВ - юго-восточный, Ю - южный, ЮЗ - юго-западный, З - западный, СЗ - северо-западный.
  • Видимость - горизонтальная дальность видимости в метрах или километрах. При видимости от 1 до 10 км при отсутствии осадков обычно наблюдается дымка, при ухудшении видимости до 1 км и менее - туман. В сухую погоду видимость может ухудшаться дымом, пылью или мглою.
  • Явления - указаны атмосферные явления, наблюдавшиеся в срок или в последний час перед сроком; фигурными скобками обозначены явления, наблюдавшиеся между сроками (за 1-3 часа до срока); квадратными скобками обозначены град или гололедные отложения с указанием их диаметра в мм.
  • Облачность - указаны через наклонную черту общая и нижняя облачность в баллах и высота нижней границы облаков в метрах; квадратными скобками обозначены формы облаков: Ci - перистые, Cs - перисто-слоистые, Cc - перисто-кучевые, Ac - высококучевые, As - высокослоистые, Sc - слоисто-кучевые, Ns - слоисто-дождевые, Cu - кучевые, Cb - кучево-дождевые. Подробнее классификацию облаков см. в Атласе облаков (PDF).
  • T - Температура воздуха - температура, измеренная на высоте 2 м над землей.
  • Td - Температура точки росы - температура, при понижении до которой содержащийся в воздухе водяной пар достигнет насыщения.
  • f - Относительная влажность воздуха - влажноcть воздуха, измеренная на высоте 2 м над землей.
  • Te - Эффективная температура - температура, которую ощущает одетый по сезону человек в тени. Характеристика душности погоды. При расчете учитывается влияние влажности воздуха и скорости ветра на теплоощущения человека.
  • Tes - Эффективная температура на солнце - температура, которую ощущает человек, с поправкой на солнечный нагрев. Характеристика знойности погоды. Зависит от высоты солнца над горизонтом, облачности и скорости ветра. Ночью, в пасмурную погоду, а также при ветре 12 м/с и более поправка равна нулю.
  • P - Атмосферное давление - приведенное к уровню моря атмосферное давление.
  • Po - Атмосферное давление - измеренное на уровне метеостанции атмосферное давление.
  • Tmin - Минимальная температура - минимум температуры воздуха на высоте 2 м над землей.
  • Tmax - Максимальная температура - максимум температуры воздуха на высоте 2 м над землей.
  • R - Количество осадков - Количество выпавших осадков за период времени, мм. При наведении курсора мыши на число - период времени, за который выпало указанное количество осадков.
  • R24 - Количество осадков - Количество выпавших осадков за 24 часа, мм.
  • S - Снежный покров - Высота снежного покрова, см. При наведении курсора мыши на число - состояние снежного покрова и степень покрытия местности в баллах.